{"data":{"norad_id":57885,"epoch":"2026-09-20T08:38:39.207264Z","epoch_age_seconds":146638,"freshness":"FRESH","line1":"1 57885U 23144X   26263.36017601  .00000223  00000+0  17636-4 0  9993","line2":"2 57885  43.0012 265.4737 0001215 272.2714  87.7999 15.27576917167354","mean_motion":15.27576917,"eccentricity":0.0001215,"inclination_deg":43.0012,"raan_deg":265.4737,"arg_perigee_deg":272.2714,"mean_anomaly_deg":87.7999,"bstar":1.7636e-5,"rev_number":16735,"period_min":94.266938965536,"perigee_km":482.22469243397,"apogee_km":483.8919628986,"semimajor_km":6861.1953276663,"source":"CELESTRAK","updated_at":"2026-09-21T09:00:33.720031Z"}}